Presure
275 266 264 253 258 253 250 261 270 235 233 257 251 257 228 246 233 244 252 242 258 246 232 230 246 241 222 236 224 216 216 217 216 209 207 208 179 194 202 199 195 124 202 188
267 261 266 250 257 241 251 243 245 257 231 250 231 230 237 244 222 237 229 234 226 238 239 248 256 257 217 221 228 229 223 212 207 205 213 208 209 207 201 209 211 201 191 189
265 263 253 236 255 245 252 228 245 236 243 232 239 251 237 243 241 232 230 229 242 237 230 233 237 236 243 243 223 228 225 221 221 221 225 204 204 203 205 202 223 198 191 203
264 254 240 246 242 241 250 234 230 226 235 230 237 252 239 226 237 244 228 238 239 237 243 231 236 235 236 243 246 219 214 221 229 222 220 214 213 217 216 213 209 215 178 178
253 257 243 253 243 242 251 243 235 240 227 247 240 234 247 246 234 235 238 232 221 228 229 244 234 236 239 241 246 237 243 221 219 227 224 217 215 213 213 216 222 218 210 132
256 248 251 253 248 242 236 243 242 232 242 225 227 242 256 230 240 219 245 225 242 240 239 236 234 228 233 234 241 245 248 253 250 243 232 228 230 230 231 231 224 206 195 202
252 247 231 250 249 239 244 251 241 245 254 226 230 237 234 238 236 238 235 236 230 224 232 241 234 236 226 235 234 234 232 230 232 235 233 238 235 232 235 239 245 245 249 252
257 244 249 256 240 240 239 231 238 237 233 234 235 238 242 233 235 234 236 229 226 225 230 230 241 237 235 228 230 227 230 228 230 225 223 221 219 226 228 226 229 227 225 228
256 253 245 251 242 242 215 219 237 233 245 235 240 232 235 230 240 238 217 238 237 230 233 228 234 227 234 234 233 235 233 232 228 228 227 229 227 227 225 225 236 250 239 234
256 252 251 249 245 248 246 250 226 241 230 230 228 231 231 230 232 233 235 239 217 221 224 226 225 233 235 229 231 224 230 238 220 227 218 245 240 245 248 243 245 248 246 237
256 252 250 253 251 245 240 246 254 245 233 246 239 233 233 234 232 234 230 231 231 233 235 236 239 239 237 234 231 233 232 228 229 231 241 245 241 236 239 248 237 228 234 235
259 258 253 254 252 251 244 235 244 249 240 229 234 243 244 245 246 248 250 247 241 241 239 238 238 247 242 246 247 246 245 243 241 242 240 241 252 256 245 245 245 266 233 225
263 260 253 259 253 253 255 249 245 243 237 237 231 242 242 241 235 239 223 240 245 247 247 249 248 240 242 240 244 247 246 241 241 243 247 249 256 259 252 256 242 238 251 240
272 266 259 257 257 262 257 261 258 255 255 256 252 243 240 246 242 243 241 241 243 246 247 253 258 258 257 257 258 261 263 266 266 268 269 268 258 284 283 281 259 250 259 259
274 273 270 264 258 258 262 262 260 261 261 259 254 249 252 247 238 258 273 278 279 281 284 284 282 287 291 288 295 304 305 304 303 305 305 296 284 272 286 284 279 292 246 264
285 281 274 269 272 272 272 272 271 267 262 253 215 222 215 279 275 273 258 267 267 268 270 271 267 266 265 270 274 273 270 278 302 301 298 296 295 294 293 287 280 264 287 265
281 281 285 281 284 278 281 277 279 288 306 313 322 329 319 310 305 304 305 305 302 266 299 278 269 268 268 265 267 266 270 279 281 279 281 290 301 308 310 308 298 299 283 276
318 310 302 298 300 306 308 313 313 301 307 347 341 326 331 318 313 291 309 299 298 297 297 299 314 315 316 318 320 324 326 328 333 338 343 344 319 306 293 290 296 308 316 319
319 333 337 309 284 277 275 311 333 315 306 300 297 294 291 290 289 288 289 288 289 289 291 292 293 295 296 298 300 301 304 305 306 307 309 311 313 319 323 328 336 344 342 300
267 265 312 315 309 297 294 287 285 284 280 277 275 274 272 269 268 272 276 277 278 279 279 280 295 311 314 316 323 324 326 329 327 323 318 315 317 320 326 331 333 335 322 325
291 290 286 283 280 275 274 266 262 263 265 265 264 263 262 263 267 267 268 267 270 274 314 318 330 334 335 336 338 340 344 336 333 332 333 340 356 356 344 345 351 356 361 366
272 270 265 261 261 258 251 251 253 261 259 260 273 284 292 296 302 301 290 290 297 305 311 313 319 325 339 385 438 445 460 475 466 458 459 482 468 466 457 453 454 450 388 348
251 251 251 249 250 252 257 253 260 266 280 275 278 278 280 285 288 292 298 303 305 308 311 333 411 424 425 461 462 456 447 438 434 427 419 416 458 456 443 429 430 436 446 453
255 265 259 254 246 263 261 263 266 263 273 279 271 274 279 287 294 297 299 297 312 357 420 409 398 464 457 452 442 429 419 416 413 406 414 451 436 424 421 410 419 423 435 441
255 247 252 265 263 261 267 254 262 273 272 266 271 275 281 292 294 300 309 341 419 406 406 469 459 450 439 430 422 420 414 405 400 393 427 428 420 418 411 412 426 418 420 425
259 251 252 258 262 262 258 269 275 276 265 282 278 280 284 289 300 314 360 406 384 468 463 449 435 422 411 403 397 392 391 393 392 390 382 391 414 408 414 400 393 406 407 402
246 239 251 253 258 250 271 277 272 272 285 283 283 281 291 301 325 364 395 449 474 458 432 409 398 426 434 440 443 445 434 421 383 378 377 378 371 408 396 392 397 387 376 393
Wind_Speed
39 36 34 32 34 31 31 35 32 36 34 39 35 43 35 39 38 38 35 32 32 45 50 55 52 57 62 66 71 75 76 76 76 79 80 80 69 76 80 78 76 36 70 68
39 36 44 34 38 32 35 34 36 36 39 44 39 39 43 45 42 34 38 39 45 39 40 38 38 42 64 66 68 73 77 76 78 78 79 81 83 83 78 82 77 75 72 73
41 40 41 30 42 39 40 27 34 34 33 38 34 43 47 42 45 46 44 45 44 46 47 46 46 50 50 59 67 70 73 75 75 75 76 76 76 78 80 76 73 70 74 76
44 42 39 44 42 41 43 34 27 31 36 31 37 44 44 43 42 43 48 49 40 37 39 45 46 50 52 53 58 66 68 70 72 74 75 77 77 80 79 76 73 73 56 68
45 48 46 53 46 46 46 45 39 46 36 43 39 33 44 43 41 42 44 37 40 39 42 40 44 46 46 52 55 62 64 69 70 73 75 75 75 75 76 77 72 60 74 41
51 48 54 54 50 47 38 48 46 39 49 34 35 36 38 42 47 40 48 46 46 46 44 45 48 51 49 51 46 46 45 48 56 63 68 71 72 71 72 73 74 73 82 84
50 50 40 54 52 45 44 48 43 42 45 43 39 39 39 41 46 49 46 47 50 49 46 47 49 52 55 51 50 53 55 56 54 54 57 57 61 64 62 62 59 65 68 69
55 49 54 51 50 47 48 42 44 42 43 46 45 43 42 44 43 46 48 51 51 50 49 49 51 54 55 58 60 60 59 59 63 61 64 66 67 67 68 68 69 68 69 69
55 57 53 57 54 55 39 38 48 46 43 45 47 42 43 43 45 48 42 53 55 55 54 54 55 54 57 58 58 61 60 61 62 64 66 67 70 72 73 74 76 72 73 74
58 57 57 60 55 57 56 55 49 55 50 49 48 50 51 50 52 53 53 54 48 50 53 55 56 60 61 56 59 60 63 63 65 67 69 67 66 65 64 68 68 69 71 68
60 59 58 61 60 57 52 54 54 59 54 61 61 58 58 60 57 60 57 58 59 61 62 64 65 65 65 65 65 65 67 68 70 70 71 68 72 71 70 70 71 73 76 77
61 62 61 61 61 62 58 50 56 60 59 52 55 58 59 60 61 64 67 71 71 70 69 68 68 71 69 70 70 71 72 73 74 75 74 74 75 73 76 75 76 77 83 83
63 64 60 65 63 62 62 62 59 57 52 53 54 59 60 60 60 63 58 66 69 70 70 70 71 70 71 72 73 75 77 77 78 79 79 78 78 75 71 77 81 83 90 93
65 64 63 63 64 66 63 64 63 62 64 65 65 61 63 68 66 68 66 67 70 73 73 76 77 77 78 80 82 83 84 85 85 84 84 83 80 74 73 74 83 87 86 95
64 64 63 65 63 63 67 66 65 65 65 65 63 61 68 68 65 74 78 79 81 82 82 82 79 81 78 78 78 76 76 76 77 77 77 79 77 76 77 79 80 83 93 98
58 59 59 60 65 69 71 71 70 70 67 60 51 51 49 72 73 73 74 75 75 75 76 76 77 77 75 77 77 76 75 76 76 77 77 79 79 80 81 83 85 87 92 100
53 50 53 51 53 56 58 58 60 61 62 62 61 58 55 54 56 58 59 60 62 73 68 76 78 78 79 79 80 80 81 82 81 80 79 79 80 83 85 87 87 90 95 96
51 57 56 53 52 51 50 50 46 42 41 33 31 37 36 42 46 55 52 57 60 64 67 70 67 69 71 73 74 75 75 77 77 78 78 80 84 84 86 86 87 89 92 95
19 24 28 27 26 27 30 20 15 19 22 26 30 35 39 43 47 51 55 59 62 65 68 70 73 75 76 78 79 80 80 81 81 82 82 82 83 84 85 86 86 86 88 94
17 18 8 8 9 13 14 18 21 24 27 31 36 41 46 51 56 59 61 64 67 69 72 75 75 74 76 78 79 81 83 84 86 86 87 88 89 90 91 91 92 92 88 88
12 10 8 8 11 16 19 24 29 33 36 40 45 49 53 57 60 63 66 68 71 74 74 75 76 77 79 80 80 81 82 82 82 83 84 85 86 85 86 87 87 88 88 88
7 6 9 14 17 22 27 32 35 38 42 46 47 52 57 60 63 65 66 69 73 76 79 80 82 84 86 85 78 76 71 64 64 64 63 55 57 57 59 62 63 66 81 90
9 12 15 19 24 29 32 36 38 40 46 49 52 56 59 63 65 69 73 76 79 81 83 88 79 75 74 67 62 59 57 57 56 57 57 58 50 49 51 55 56 57 57 59
13 15 18 23 28 31 34 38 41 44 51 55 57 60 65 70 73 75 79 81 86 89 78 77 75 64 59 56 55 54 53 52 51 51 50 44 44 47 49 51 51 51 50 51
16 21 25 29 32 36 42 42 48 54 56 58 62 66 72 75 77 82 85 89 79 78 75 64 59 55 53 51 50 49 49 49 48 47 43 42 44 45 46 46 45 45 45 45
21 24 29 35 40 43 46 52 55 58 60 65 68 72 76 79 82 85 88 80 78 64 57 54 52 51 50 49 48 48 47 46 45 44 44 43 40 42 42 43 43 42 43 45
25 28 35 41 45 46 55 58 60 63 66 69 72 75 78 81 86 89 83 71 59 54 52 52 52 50 48 47 46 46 46 46 47 46 44 44 43 41 41 40 40 42 44 43
Wind_Direction
169 170 168 182 167 177 178 142 152 185 194 179 176 170 197 184 201 204 198 205 208 215 220 222 229 227 221 223 225 227 231 234 234 237 240 241 245 250 249 250 253 259 252 263
178 189 167 192 176 213 176 191 179 169 203 179 193 197 197 189 211 200 210 217 222 211 220 223 227 233 226 227 228 230 231 233 236 237 237 240 242 244 250 250 249 250 261 262
186 182 181 227 183 200 184 220 193 204 201 204 195 199 201 197 195 207 210 221 217 219 225 227 228 232 234 235 233 233 235 238 241 241 239 246 248 249 251 255 251 255 258 256
192 192 208 202 208 222 197 222 204 228 209 221 210 201 208 219 206 210 223 220 228 231 234 231 235 235 236 237 240 240 242 244 243 244 244 246 249 249 250 254 257 257 267 264
198 191 212 202 214 216 204 206 217 204 231 210 215 220 216 208 220 222 227 227 230 233 229 234 234 238 239 240 242 242 242 245 246 246 247 249 249 250 252 254 254 250 248 254
204 209 204 208 212 220 230 217 212 230 212 233 230 219 219 227 224 235 232 236 231 229 226 226 228 232 234 239 240 244 245 247 247 246 247 249 250 250 250 250 249 244 249 256
217 218 223 220 217 227 224 219 223 220 214 231 230 223 221 218 218 221 224 225 231 239 238 234 235 235 237 239 238 239 240 243 246 247 248 247 247 249 251 251 247 246 247 245
221 230 221 220 224 224 230 243 238 233 232 231 232 227 227 233 234 237 234 235 241 243 244 244 238 238 237 242 240 243 242 246 243 244 247 248 250 250 248 249 250 248 246 245
227 226 229 225 226 226 242 246 238 241 234 241 236 242 240 245 241 237 252 241 243 246 245 249 246 248 248 246 248 247 249 249 249 248 250 252 251 252 252 253 254 252 248 249
228 230 231 232 234 232 233 234 242 236 245 246 250 248 248 248 250 251 250 245 254 253 252 252 252 254 254 252 251 250 251 251 252 255 254 261 257 256 253 252 249 247 243 237
229 231 233 234 235 237 239 237 237 238 243 243 246 251 252 252 252 252 255 256 258 258 258 258 259 259 258 257 257 256 255 253 253 257 264 260 256 256 253 249 246 246 243 243
230 233 236 237 238 239 242 243 241 240 242 244 247 249 252 254 256 256 256 257 259 261 261 262 264 266 265 265 263 262 261 261 261 262 261 260 260 258 250 248 245 237 242 245
231 234 238 240 243 244 243 245 248 250 249 249 251 254 255 256 256 258 260 260 261 262 263 264 265 264 264 264 264 264 263 262 262 262 263 262 261 259 251 247 246 244 237 239
232 234 238 243 247 247 250 251 253 254 254 256 259 260 261 262 262 263 264 264 266 267 268 269 269 269 269 268 268 267 267 267 266 266 265 264 260 264 259 255 247 245 242 237
234 236 239 243 248 252 254 256 258 261 262 262 261 261 262 263 268 267 268 269 269 270 271 271 271 272 273 273 271 270 270 269 268 267 266 266 264 259 259 255 252 249 247 239
236 238 241 246 249 253 257 260 263 265 268 270 254 267 264 272 272 272 269 270 269 269 270 270 270 271 271 271 270 269 268 268 267 266 265 264 262 261 258 255 252 250 248 243
241 244 246 250 253 257 261 266 269 271 277 279 280 281 280 278 276 275 274 275 273 270 272 270 270 271 272 272 272 272 271 270 268 266 265 264 263 262 260 258 255 253 250 249
244 248 255 260 265 269 272 274 277 277 278 283 284 282 285 283 283 278 283 279 278 278 277 277 279 278 277 276 275 274 274 273 272 271 270 270 266 264 261 260 258 257 257 256
250 252 256 258 259 260 262 265 270 276 281 282 282 283 283 282 281 281 280 280 279 279 279 279 279 279 278 277 277 276 275 274 274 273 272 270 269 268 266 266 265 264 262 256
235 240 186 187 206 246 256 268 275 282 283 283 283 283 282 281 280 281 282 282 282 282 282 282 284 284 283 282 280 278 276 275 274 273 272 272 271 270 268 267 265 264 261 260
167 176 207 229 250 262 275 275 278 280 283 283 283 283 283 283 284 284 284 285 285 286 297 295 293 291 289 287 285 284 282 280 278 276 275 275 274 270 267 265 264 263 262 262
189 223 253 267 276 280 279 282 286 289 289 289 296 306 308 307 306 302 298 297 299 299 298 296 295 294 292 290 289 288 288 288 286 284 282 281 278 275 273 271 269 267 263 261
256 272 280 282 283 283 286 286 294 303 311 307 311 309 307 305 303 303 303 302 300 300 301 299 300 298 296 296 295 293 290 288 285 283 281 279 278 276 273 271 270 269 268 266
290 299 291 285 291 308 307 308 309 307 312 310 308 308 309 310 309 308 305 304 304 305 307 304 302 302 300 298 295 292 290 289 287 285 283 282 277 275 273 272 272 271 270 268
306 297 302 317 314 311 313 309 312 312 310 310 311 312 312 312 311 309 308 310 312 310 308 307 305 303 301 299 297 295 292 290 288 287 285 282 279 277 275 274 273 272 271 270
318 314 319 322 322 321 319 318 315 314 314 313 313 313 313 312 311 312 316 316 314 311 309 307 305 303 301 299 297 294 292 290 288 286 284 283 280 279 277 273 271 270 270 270
319 308 326 327 325 319 323 321 320 318 316 314 314 313 313 314 317 320 320 317 315 313 311 309 307 304 302 300 299 296 293 290 286 284 283 281 280 278 276 274 273 270 268 269